Temp
3 2 2 2 1 1 1 2 2 3 3 3 2 3 2 1 -1 -2 -2 -2 -3 -4 -4 -4 -5 -5 -5 -5 -5 -5 -5 -6 -5 -4 -4 -5 -7 -7 -7 -6 -7 -7 -5
2 1 2 1 1 1 1 2 3 2 2 3 2 2 1 -0 -2 -3 -4 -4 -4 -4 -5 -5 -5 -4 -5 -5 -5 -5 -5 -5 -5 -5 -4 -6 -7 -8 -8 -7 -7 -8 -7
1 1 1 0 0 -0 0 1 2 1 1 1 2 0 -2 -2 -4 -4 -5 -4 -4 -5 -6 -6 -4 -6 -6 -6 -6 -6 -6 -5 -5 -5 -5 -6 -8 -8 -8 -8 -7 -8 -8
0 -0 -0 -0 -1 0 0 0 0 -0 -0 -0 -0 -1 -2 -4 -5 -5 -5 -5 -6 -7 -5 -3 -3 -2 -3 -6 -7 -7 -7 -6 -6 -5 -6 -7 -8 -9 -9 -8 -7 -7 -8
0 -1 -2 -1 -1 -1 -1 -2 -2 -3 -2 -2 -1 -2 -5 -4 -6 -6 -6 -6 -7 -7 -6 -4 -4 -3 -4 -4 -4 -5 -8 -7 -7 -7 -8 -8 -10 -10 -10 -9 -7 -7 -7
-1 -2 -2 -3 -2 -3 -3 -2 -3 -4 -6 -3 -2 -6 -6 -4 -3 -5 -6 -6 -7 -7 -8 -9 -4 -4 -5 -5 -5 -5 -5 -6 -8 -9 -9 -10 -9 -9 -11 -10 -8 -8 -9
-2 -2 -4 -4 -3 -4 -4 -4 -4 -6 -6 -3 -6 -7 -4 -3 -5 -5 -7 -7 -8 -8 -8 -9 -9 -6 -10 -8 -6 -6 -6 -6 -5 -7 -7 -7 -7 -7 -10 -11 -10 -9 -10
-3 -3 -4 -4 -3 -3 -4 -5 -6 -6 -6 -5 -7 -7 -6 -4 -5 -6 -6 -6 -7 -7 -6 -6 -5 -6 -6 -9 -7 -7 -7 -6 -6 -6 -7 -7 -7 -7 -8 -11 -11 -10 -10
-3 -3 -3 -2 -3 -3 -3 -4 -5 -5 -3 -6 -8 -8 -5 -5 -6 -6 -8 -7 -7 -7 -6 -6 -6 -6 -7 -7 -8 -7 -7 -7 -8 -8 -8 -8 -8 -8 -7 -8 -8 -10 -10
-3 -2 -3 -3 -3 -3 -4 -5 -5 -5 -6 -8 -8 -7 -6 -6 -7 -7 -10 -10 -11 -8 -7 -7 -7 -7 -7 -7 -8 -8 -8 -8 -8 -9 -9 -9 -8 -8 -8 -8 -8 -9 -10
-3 -3 -3 -4 -4 -4 -5 -6 -6 -8 -8 -8 -9 -8 -7 -7 -7 -8 -10 -10 -11 -11 -11 -8 -7 -8 -8 -8 -8 -8 -9 -9 -9 -9 -9 -9 -9 -9 -9 -9 -9 -9 -10
-3 -3 -4 -5 -5 -6 -6 -7 -7 -8 -9 -10 -11 -11 -11 -9 -8 -9 -9 -10 -11 -11 -12 -8 -8 -8 -8 -9 -9 -8 -9 -9 -10 -10 -10 -10 -10 -10 -10 -10 -10 -10 -10
-3 -4 -4 -5 -6 -6 -6 -8 -9 -10 -10 -11 -11 -11 -12 -13 -9 -9 -10 -9 -10 -11 -8 -8 -8 -9 -9 -10 -9 -9 -9 -10 -11 -11 -12 -13 -13 -13 -13 -13 -14 -14 -14
-4 -4 -5 -4 -5 -6 -7 -9 -10 -10 -10 -10 -10 -11 -11 -12 -12 -10 -10 -10 -9 -9 -9 -9 -9 -9 -10 -10 -10 -10 -10 -11 -12 -14 -14 -14 -15 -15 -15 -15 -15 -15 -14
-4 -4 -5 -5 -6 -7 -9 -9 -9 -9 -9 -9 -9 -10 -11 -11 -12 -13 -12 -10 -9 -9 -10 -9 -10 -10 -11 -11 -11 -11 -12 -13 -14 -14 -14 -15 -15 -15 -15 -15 -15 -15 -14
-5 -5 -5 -6 -7 -8 -10 -10 -10 -10 -9 -9 -9 -10 -10 -11 -12 -12 -11 -10 -9 -10 -10 -11 -12 -13 -14 -14 -14 -14 -13 -12 -12 -13 -13 -13 -15 -16 -15 -15 -16 -16 -15
-5 -6 -6 -6 -7 -9 -10 -10 -10 -10 -10 -10 -10 -10 -11 -11 -12 -12 -10 -11 -10 -11 -13 -14 -14 -14 -14 -14 -14 -15 -14 -12 -12 -13 -14 -14 -15 -16 -16 -16 -16 -17 -16
-6 -5 -6 -6 -8 -9 -9 -10 -11 -10 -11 -11 -11 -11 -11 -11 -11 -11 -10 -11 -11 -11 -14 -14 -14 -14 -15 -15 -14 -14 -13 -13 -13 -14 -15 -15 -14 -17 -17 -17 -17 -18 -17
-6 -6 -6 -7 -8 -9 -9 -10 -11 -11 -12 -13 -13 -14 -14 -14 -14 -12 -12 -13 -13 -13 -14 -15 -15 -15 -15 -15 -13 -13 -13 -13 -14 -14 -15 -15 -15 -17 -18 -18 -18 -18 -18
-6 -7 -7 -8 -9 -9 -9 -10 -11 -11 -11 -12 -12 -13 -14 -14 -15 -15 -13 -15 -15 -14 -15 -15 -15 -15 -15 -14 -13 -13 -14 -14 -14 -15 -15 -16 -16 -17 -18 -19 -19 -19 -18
-7 -8 -8 -9 -9 -10 -10 -10 -10 -10 -11 -11 -12 -12 -13 -14 -14 -14 -15 -15 -15 -15 -15 -15 -15 -13 -13 -13 -14 -15 -14 -15 -14 -15 -16 -16 -16 -17 -19 -19 -19 -19 -19
-7 -8 -9 -9 -9 -10 -10 -10 -10 -11 -11 -11 -11 -12 -13 -13 -13 -14 -14 -15 -15 -15 -15 -15 -14 -14 -14 -14 -14 -15 -14 -15 -15 -16 -16 -16 -17 -19 -20 -20 -20 -20 -20
-8 -8 -9 -9 -10 -10 -10 -10 -11 -11 -11 -12 -12 -12 -14 -14 -13 -14 -15 -15 -14 -13 -13 -13 -14 -14 -14 -14 -14 -15 -15 -16 -16 -16 -16 -17 -18 -20 -20 -21 -21 -21 -21
-8 -9 -10 -10 -10 -10 -11 -11 -11 -11 -11 -12 -12 -13 -14 -14 -14 -14 -15 -15 -14 -13 -13 -13 -14 -14 -14 -14 -14 -15 -15 -16 -16 -16 -17 -17 -18 -19 -21 -22 -22 -22 -22
-9 -10 -10 -10 -11 -11 -11 -11 -11 -11 -12 -12 -12 -13 -14 -14 -14 -15 -15 -14 -13 -13 -13 -13 -14 -14 -14 -15 -15 -16 -15 -16 -17 -17 -18 -18 -18 -19 -19 -22 -23 -23 -23
-9 -10 -10 -10 -10 -10 -10 -11 -11 -11 -12 -12 -12 -13 -14 -14 -14 -15 -15 -13 -13 -13 -13 -14 -14 -15 -15 -15 -16 -16 -16 -17 -17 -18 -18 -19 -19 -20 -23 -23 -23 -23 -23
Height
1464 1465 1465 1468 1470 1474 1477 1480 1483 1486 1487 1488 1490 1493 1496 1496 1499 1502 1501 1498 1497 1498 1497 1499 1500 1500 1502 1499 1499 1498 1497 1494 1496 1493 1490 1488 1485 1483 1479 1477 1477 1471 1469
1460 1461 1460 1462 1466 1470 1472 1474 1480 1486 1486 1485 1487 1491 1495 1497 1498 1499 1501 1497 1495 1495 1497 1497 1498 1499 1501 1500 1497 1502 1497 1496 1493 1490 1490 1488 1485 1481 1480 1478 1476 1474 1469
1453 1454 1455 1456 1458 1464 1467 1472 1477 1482 1484 1484 1485 1490 1494 1496 1499 1498 1499 1494 1492 1497 1496 1494 1494 1495 1497 1498 1497 1497 1497 1495 1490 1490 1491 1489 1486 1481 1479 1479 1477 1474 1471
1448 1450 1447 1448 1453 1456 1463 1469 1474 1478 1481 1481 1483 1488 1491 1495 1498 1500 1498 1494 1493 1495 1493 1493 1493 1493 1491 1494 1496 1497 1495 1492 1489 1490 1490 1489 1484 1482 1481 1479 1479 1476 1474
1446 1445 1446 1445 1449 1453 1460 1467 1472 1476 1479 1477 1481 1487 1492 1492 1496 1496 1496 1497 1495 1492 1492 1493 1494 1494 1494 1491 1491 1493 1492 1491 1488 1488 1489 1489 1483 1481 1481 1481 1481 1477 1473
1439 1441 1444 1445 1443 1452 1458 1462 1469 1473 1477 1476 1479 1487 1490 1490 1492 1491 1494 1496 1495 1495 1495 1494 1492 1494 1497 1494 1489 1491 1490 1487 1486 1486 1487 1487 1483 1481 1481 1482 1483 1480 1476
1434 1437 1441 1442 1441 1449 1456 1460 1465 1471 1474 1474 1481 1486 1486 1489 1491 1488 1492 1492 1492 1493 1494 1495 1494 1495 1500 1496 1492 1491 1491 1490 1487 1486 1486 1486 1483 1481 1480 1482 1482 1481 1474
1429 1430 1435 1440 1441 1447 1452 1457 1463 1467 1471 1474 1483 1484 1485 1487 1487 1489 1489 1488 1490 1489 1489 1491 1491 1496 1498 1494 1494 1492 1492 1491 1490 1488 1488 1487 1485 1482 1480 1480 1481 1481 1478
1422 1429 1434 1436 1439 1445 1449 1455 1459 1464 1471 1475 1479 1481 1482 1484 1486 1489 1488 1487 1489 1488 1489 1491 1492 1496 1496 1494 1496 1493 1493 1492 1491 1490 1489 1489 1487 1485 1483 1481 1479 1478 1477
1422 1424 1429 1433 1437 1441 1447 1453 1459 1466 1470 1474 1477 1478 1478 1482 1485 1486 1486 1489 1489 1488 1489 1491 1495 1495 1495 1495 1497 1493 1495 1494 1493 1492 1492 1491 1490 1487 1485 1483 1480 1479 1478
1421 1428 1430 1433 1438 1444 1448 1454 1459 1465 1469 1473 1477 1477 1478 1481 1482 1484 1485 1487 1490 1489 1491 1493 1495 1496 1497 1497 1497 1494 1496 1495 1495 1494 1494 1492 1491 1489 1487 1485 1483 1481 1479
1423 1427 1430 1436 1441 1446 1449 1454 1459 1464 1468 1474 1476 1477 1477 1478 1480 1483 1484 1484 1487 1489 1488 1491 1494 1496 1498 1502 1498 1495 1497 1497 1496 1495 1495 1494 1492 1491 1489 1487 1485 1483 1482
1422 1426 1431 1438 1443 1447 1450 1454 1460 1465 1469 1475 1477 1477 1476 1478 1478 1481 1485 1485 1487 1487 1488 1489 1491 1495 1499 1503 1499 1497 1498 1498 1497 1496 1496 1495 1493 1492 1490 1489 1488 1485 1483
1421 1427 1432 1436 1440 1445 1450 1457 1462 1465 1471 1472 1474 1477 1478 1478 1478 1480 1483 1484 1487 1489 1490 1490 1492 1493 1499 1503 1500 1498 1498 1498 1497 1497 1497 1496 1495 1494 1493 1491 1490 1489 1489
1423 1428 1434 1437 1441 1444 1451 1457 1463 1467 1470 1470 1473 1474 1477 1480 1481 1482 1481 1483 1485 1489 1492 1491 1494 1492 1499 1502 1500 1498 1498 1498 1498 1498 1497 1497 1496 1494 1494 1492 1490 1490 1490
1424 1429 1432 1435 1441 1446 1451 1456 1461 1463 1465 1469 1471 1473 1477 1479 1478 1480 1481 1482 1486 1487 1489 1493 1494 1494 1499 1501 1500 1499 1499 1499 1498 1498 1498 1497 1496 1495 1494 1493 1492 1491 1490
1423 1428 1433 1436 1440 1446 1451 1453 1455 1460 1465 1467 1469 1470 1473 1476 1478 1478 1479 1485 1486 1486 1489 1495 1494 1495 1498 1499 1499 1499 1499 1498 1498 1498 1497 1496 1496 1496 1495 1494 1493 1490 1488
1424 1429 1433 1436 1441 1446 1450 1453 1456 1459 1462 1465 1469 1469 1471 1474 1476 1476 1478 1483 1486 1485 1490 1494 1493 1495 1497 1498 1498 1498 1497 1497 1497 1497 1496 1495 1494 1494 1494 1493 1492 1488 1486
1424 1429 1434 1438 1442 1446 1450 1454 1456 1460 1464 1465 1467 1470 1470 1472 1475 1477 1480 1483 1484 1486 1489 1491 1492 1494 1495 1495 1495 1496 1496 1496 1495 1495 1494 1494 1493 1493 1493 1491 1490 1487 1486
1428 1432 1435 1439 1443 1446 1449 1452 1457 1461 1462 1464 1467 1467 1469 1474 1475 1477 1479 1482 1484 1486 1487 1489 1490 1491 1492 1492 1493 1493 1493 1494 1493 1493 1492 1492 1491 1490 1491 1489 1488 1486 1485
1429 1433 1436 1439 1442 1445 1448 1452 1456 1458 1461 1463 1465 1467 1470 1473 1476 1477 1479 1480 1482 1484 1484 1486 1487 1488 1489 1490 1490 1491 1491 1491 1491 1490 1490 1489 1488 1488 1487 1486 1485 1483 1482
1429 1433 1436 1438 1441 1444 1448 1451 1454 1457 1460 1462 1465 1466 1469 1473 1475 1477 1478 1478 1479 1480 1481 1483 1483 1485 1486 1487 1488 1488 1488 1488 1487 1487 1487 1486 1485 1485 1485 1483 1482 1481 1479
1430 1432 1435 1438 1441 1444 1447 1450 1452 1455 1458 1461 1463 1465 1467 1471 1473 1474 1475 1475 1475 1477 1478 1479 1480 1481 1482 1483 1484 1484 1484 1484 1484 1484 1483 1483 1482 1481 1481 1479 1479 1477 1476
1430 1433 1435 1438 1440 1443 1446 1449 1452 1455 1457 1460 1462 1463 1465 1468 1470 1471 1472 1472 1472 1474 1475 1476 1477 1477 1478 1479 1480 1480 1481 1480 1480 1480 1480 1479 1478 1477 1477 1475 1474 1473 1472
1431 1433 1436 1438 1440 1443 1446 1448 1451 1453 1455 1458 1459 1461 1462 1465 1467 1468 1469 1469 1470 1471 1471 1472 1473 1474 1475 1476 1476 1476 1476 1477 1476 1476 1475 1475 1474 1473 1471 1470 1470 1469 1468
1431 1434 1436 1438 1441 1443 1446 1448 1450 1452 1453 1455 1457 1459 1460 1462 1464 1464 1465 1465 1467 1468 1468 1469 1470 1470 1471 1471 1472 1472 1472 1473 1472 1472 1471 1470 1469 1468 1468 1467 1466 1464 1463
Wind_Speed
27 26 26 23 23 22 20 19 19 17 15 13 11 8 7 6 5 5 4 5 6 5 6 5 5 6 4 4 6 5 5 6 7 10 10 11 14 14 15 3 6 11 9
27 26 27 26 25 24 22 22 20 17 16 14 11 10 9 7 7 6 7 7 7 7 6 5 5 5 5 6 5 6 5 5 6 10 10 11 13 14 12 8 5 9 6
27 28 29 29 29 27 25 22 21 18 16 14 12 10 8 8 7 7 6 7 7 7 7 6 5 5 5 6 5 4 4 4 5 7 8 9 11 14 11 11 6 11 7
28 29 31 33 31 28 25 22 20 17 15 13 12 11 10 9 7 6 6 7 7 7 5 3 3 3 3 5 5 5 6 5 6 6 7 8 12 13 12 10 10 12 12
27 30 30 34 29 28 26 22 19 17 15 14 13 11 10 9 9 8 7 7 7 7 5 3 5 5 5 5 4 5 7 7 8 8 7 8 13 14 14 12 10 12 9
33 30 34 32 30 26 25 24 21 18 17 14 12 11 11 12 13 16 11 9 8 8 8 6 7 6 7 8 9 8 8 8 11 10 8 10 12 13 11 12 10 8 7
32 33 30 33 32 29 25 23 22 19 15 14 13 13 12 14 15 16 16 10 11 11 11 8 7 7 7 7 9 10 10 10 11 11 10 12 13 15 13 10 9 8 12
32 37 36 31 28 27 26 23 22 20 19 18 19 13 12 16 16 15 12 10 10 10 10 9 8 6 6 8 6 8 10 11 12 13 14 14 15 15 12 10 9 4 8
41 33 30 33 30 24 23 25 25 23 21 20 19 17 13 15 15 15 10 9 11 11 10 10 9 8 8 8 7 8 9 11 13 13 13 13 13 14 14 11 13 9 6
36 39 33 26 28 29 27 25 22 21 22 22 20 16 14 16 17 16 12 11 10 11 11 10 9 9 9 8 7 9 8 10 11 11 11 11 12 12 14 16 16 14 13
35 30 29 30 28 26 25 22 22 21 19 17 16 15 15 15 17 17 19 11 11 11 9 9 10 10 9 8 7 9 8 9 9 10 10 10 11 12 14 15 16 17 17
29 30 31 28 27 25 23 22 20 19 18 17 16 14 13 14 16 18 18 18 16 12 10 10 11 10 9 6 7 9 7 7 7 8 8 9 11 12 13 14 15 14 16
28 31 29 26 24 21 21 21 20 19 17 16 15 14 13 11 15 16 15 15 16 13 11 12 12 10 8 6 7 7 5 6 7 7 8 9 10 13 13 13 14 17 20
31 30 31 28 25 22 20 19 17 16 16 16 14 13 13 12 12 15 15 15 11 9 12 12 10 10 7 4 5 5 6 7 7 7 8 9 9 10 11 12 12 12 10
27 29 28 25 24 22 19 17 16 15 14 14 14 14 15 15 14 13 13 14 14 13 11 11 10 9 6 3 4 5 5 6 6 7 7 7 8 8 9 11 11 10 10
28 31 30 28 25 23 22 22 19 19 22 20 18 15 17 16 17 15 16 15 13 14 11 9 8 7 5 3 3 3 3 4 4 5 6 6 7 8 8 9 10 9 9
29 31 29 26 23 21 18 17 23 20 23 22 23 23 20 20 17 14 14 14 14 13 9 7 7 6 5 4 3 2 1 2 3 4 5 6 6 6 8 7 8 9 9
26 27 26 23 21 21 20 17 16 18 20 20 19 19 16 16 15 14 16 15 13 13 9 7 7 6 6 4 4 3 2 2 2 3 4 6 7 6 7 7 8 11 11
22 22 22 20 20 20 21 19 16 15 15 15 15 13 10 13 14 12 13 8 9 9 8 7 7 7 7 7 7 5 4 4 4 4 5 6 7 6 7 8 8 11 12
18 20 20 20 21 22 22 20 18 16 15 15 15 16 16 18 13 12 14 9 8 7 8 8 9 9 8 8 7 6 5 5 5 5 7 7 8 7 7 8 9 10 10
18 20 18 18 19 20 20 18 16 15 14 14 14 16 19 17 12 10 9 9 9 9 10 9 11 11 11 10 8 8 8 8 8 8 8 8 10 9 8 8 9 10 11
15 17 17 16 17 16 16 15 15 14 14 14 15 17 19 15 13 12 10 9 10 11 11 12 12 12 12 11 11 10 10 10 10 9 9 11 10 9 8 9 10 11 11
13 15 15 15 15 15 17 16 16 14 14 15 16 18 18 16 13 12 12 12 11 12 13 13 13 14 14 13 13 12 11 10 11 11 11 12 11 9 10 9 10 11 11
11 13 13 13 15 16 16 14 13 14 16 15 15 13 15 16 16 13 13 13 11 11 12 13 14 15 15 14 14 14 14 15 14 13 13 13 13 11 10 11 10 11 13
11 13 13 14 14 14 14 13 13 13 13 13 14 14 12 14 15 14 13 14 12 11 11 12 13 15 15 15 16 15 16 13 14 14 15 15 15 15 14 12 12 12 13
13 14 14 13 13 13 13 13 13 13 13 13 13 12 12 13 14 14 15 14 11 11 13 13 13 14 15 15 15 16 16 15 15 15 16 16 16 14 12 12 13 13 13
Wind_Direction
204 199 196 186 187 189 188 187 191 188 183 181 181 186 191 188 177 176 166 133 115 93 65 53 47 34 27 26 7 351 343 328 313 330 343 328 343 338 341 338 355 313 288
201 194 197 194 192 189 189 188 192 189 184 186 179 193 190 185 178 169 149 133 110 94 92 79 72 54 38 12 20 343 342 337 336 343 342 342 346 345 349 337 355 351 336
199 195 195 194 193 190 190 185 190 186 188 181 184 186 176 177 170 159 154 128 117 107 101 95 83 77 52 24 15 3 342 346 3 0 349 347 356 351 8 351 358 323 6
199 194 190 195 195 186 189 184 184 182 182 175 176 182 182 167 164 148 136 115 110 118 111 96 92 90 84 79 24 15 9 31 33 28 11 2 7 7 10 3 334 318 2
201 192 186 194 189 187 183 179 175 174 180 175 178 174 172 157 164 146 132 127 121 106 98 81 76 67 63 76 73 65 61 48 56 49 31 16 16 12 15 7 1 303 331
199 193 200 191 185 184 178 178 177 172 184 168 166 171 181 193 175 153 143 137 120 105 104 80 80 88 79 78 75 65 59 85 69 62 42 34 23 20 24 13 8 12 331
202 204 186 186 181 178 182 177 172 168 171 172 163 180 191 174 169 162 145 136 135 134 124 109 99 85 67 50 69 65 63 64 70 76 59 46 34 28 35 12 16 10 18
190 187 189 187 180 183 181 175 169 168 177 178 170 179 180 173 167 171 163 145 137 136 135 140 124 126 130 102 75 75 74 69 65 62 58 50 42 35 39 30 7 14 360
193 195 197 197 189 185 187 185 183 188 193 180 169 184 180 169 168 163 150 141 140 136 138 135 130 130 119 105 98 81 72 73 69 62 56 51 48 43 38 54 57 48 36
206 203 195 189 193 190 184 180 180 188 181 175 181 185 179 173 169 157 143 136 128 120 122 125 130 127 117 106 105 91 79 73 66 61 56 52 50 48 48 48 51 55 50
208 198 193 193 190 187 179 175 175 170 171 173 174 175 176 177 173 167 149 155 137 126 121 135 134 124 112 107 102 91 81 76 68 60 51 47 44 43 43 44 42 47 46
205 197 193 189 186 178 176 168 170 174 169 165 164 161 170 178 177 174 171 169 154 141 144 142 133 127 119 115 107 96 83 75 65 54 46 42 41 40 39 37 35 35 38
203 198 189 185 181 181 178 169 167 168 165 164 163 161 164 175 180 180 181 171 165 158 161 141 139 132 127 124 106 95 90 79 67 55 45 37 32 29 26 32 24 27 11
201 190 186 184 181 180 171 168 170 168 174 171 170 170 169 171 173 174 175 178 180 162 153 148 146 139 130 128 105 93 76 67 64 52 39 31 26 24 17 20 26 24 20
194 186 185 182 179 171 165 167 172 176 182 176 178 180 181 184 178 176 171 171 174 170 161 153 152 141 142 131 95 74 63 54 45 42 37 30 20 23 14 13 16 16 10
188 184 183 179 175 167 163 168 173 185 181 178 178 186 188 199 203 190 183 182 175 169 162 165 162 145 152 145 107 62 45 44 39 33 21 20 18 7 19 6 4 6 359
186 186 184 180 175 167 168 173 183 188 190 190 188 191 202 201 215 216 198 185 179 168 157 177 166 158 168 162 154 148 274 3 6 12 7 3 14 5 6 358 351 354 352
184 189 183 181 173 172 174 175 176 179 178 184 191 203 205 203 211 205 183 179 178 177 167 184 178 176 175 184 196 205 249 299 331 348 343 348 358 3 349 346 348 344 344
187 183 181 181 179 179 181 182 174 169 171 165 164 173 171 162 162 162 158 160 177 183 184 185 191 191 196 201 222 236 252 272 302 318 325 333 336 344 331 332 336 334 351
183 178 176 175 175 175 177 174 170 170 168 169 174 173 170 174 174 181 180 177 187 186 196 195 204 207 213 221 237 243 259 275 293 308 309 316 322 329 318 323 324 328 328
181 180 177 177 174 177 175 168 170 168 171 174 176 180 179 178 180 187 187 201 193 196 205 204 220 223 229 234 239 247 246 260 276 285 292 298 309 315 310 316 317 318 319
185 178 176 175 172 172 169 169 170 173 176 174 180 195 201 182 192 197 202 209 206 208 218 220 229 236 235 239 242 249 260 264 273 281 288 299 302 303 306 307 312 309 313
179 175 174 173 175 174 169 172 174 174 177 178 195 202 202 192 201 204 211 226 225 227 232 235 236 240 245 246 251 253 260 268 270 280 288 292 295 296 292 302 302 305 304
177 177 174 174 175 175 177 177 173 179 189 185 194 213 195 198 210 212 221 237 238 239 243 242 245 251 254 255 255 258 261 266 276 281 284 288 291 294 293 292 296 297 301
172 168 169 170 175 176 176 174 183 194 194 200 201 210 207 205 211 220 227 242 245 250 257 255 254 257 257 258 261 264 270 275 272 280 287 291 292 291 293 295 294 296 297
164 164 167 169 170 174 179 185 190 201 202 204 213 211 213 212 219 224 233 246 248 255 264 264 262 261 262 260 260 263 269 271 274 278 282 286 290 289 286 284 285 291 292